Regional Weather Roundup
Issued by NWS

Home | Current Version | Previous Version | Graphics & Text | Print | Product List | Glossary On
Versions: 1 2 3 4 5 6 7 8 9 10 11 12 13 14 15 16 17 18 19 20 21 22 23 24 25 26 27 28 29 30 31 32 33 34 35 36 37 38 39 40 41 42 43 44 45 46 47 48 49 50
000
ASUS43 KDTX 311401
RWRMI
MICHIGAN HOURLY REGIONAL WEATHER ROUNDUP
NATIONAL WEATHER SERVICE DETROIT/PONTIAC MI
1000 AM EDT THU JUL 31 2014

NOTE: "FAIR" INDICATES FEW OR NO CLOUDS BELOW 12,000 FEET WITH NO
SIGNIFICANT WEATHER AND/OR OBSTRUCTION TO VISIBILITY.

MIZ047>049-052>055-059>063-066>070-074>076-081>083-311500-
SOUTHEAST LOWER MICHIGAN

CITY           SKY/WX    TMP DP  RH WIND       PRES   REMARKS
ADRIAN         MOSUNNY   67  55  65 W7        30.05F
ALMA           SUNNY     64  56  75 W9        30.01S
ANN ARBOR      SUNNY     67  54  63 W6        30.04S
BAD AXE        PTSUNNY   64  59  84 SW5       30.00S
CARO           MOSUNNY   65  58  79 SW6       30.00S
DETROIT CITY   CLOUDY    65  52  62 W3        30.04R
DETROIT        PTSUNNY   65  55  70 SW5       30.04F
FLINT          SUNNY     66  53  63 SW9       30.02S
GROSSE ILE     MOSUNNY   64  55  72 W5        30.03S
HILLSDALE      CLOUDY    68  57  67 SW5       30.05S
HOWELL         SUNNY     65  54  65 SW7       30.03S

CITY           SKY/WX    TMP DP  RH WIND       PRES   REMARKS
JACKSON        MOSUNNY   67  55  65 W10       30.04S
LAMBERTVILLE   SUNNY     68  54  60 CALM      30.05F
LANSING        SUNNY     67  55  65 W9        30.02S
LAPEER         FAIR      64  51  62 W5        30.02F
MASON          SUNNY     66  56  70 SW8       30.03S
MONROE         SUNNY     66  57  72 W3        30.03S
MT. CLEMENS    MOSUNNY   67  53  60 SW8       30.02S
PONTIAC        MOSUNNY   63  52  67 W8        30.03S
PORT HOPE        N/A     64  56  75 SW8       29.97S
PORT HURON     MOSUNNY   64  57  77 W5        30.02F
TRI CITIES     SUNNY     65  56  72 W12       30.00F
TROY           PTSUNNY   65  52  63 SW3       30.04S
SAGINAW HB     SUNNY     64  54  68 SW7       29.99F
$$
MIZ043>046-050>051-056>058-064>065-071>073-077>080-311500-
SOUTHWEST LOWER MICHIGAN

CITY           SKY/WX    TMP DP  RH WIND       PRES   REMARKS
BATTLE CREEK   PTSUNNY   68  56  65 SW10      30.04S
BENTON HARBOR  MOSUNNY   69  60  73 SW13      30.03S
BIG RAPIDS     MOSUNNY   63  56  79 SW5       30.00S
COLDWATER      MOSUNNY   68  59  73 W6        30.04F
FREMONT        FAIR      66  60  79 W3        30.00S
HOLLAND        MOSUNNY   69  62  78 W9        30.02S
GRAND RAPIDS   MOSUNNY   69  61  75 SW10      30.02S
IONIA          FAIR      66  58  73 W10       30.01S
KALAMAZOO      PTSUNNY   68  57  68 SW7       30.04S
LUDINGTON      SUNNY     64  58  83 W5        30.00R
MARSHALL       MOSUNNY   65  56  72 SW8       30.04S
MOUNT PLEASANT SUNNY     65  58  76 W6        29.99S
MUSKEGON       MOSUNNY   67  57  70 W5        30.01S
SOUTH HAVEN    MOSUNNY   69  63  81 SW9       30.02F
$$
MIZ016>042-311500-
NORTHERN LOWER MICHIGAN

CITY           SKY/WX    TMP DP  RH WIND       PRES   REMARKS
BEAVER ISLAND  SUNNY     63  61  93 SW7       29.95R
BELLAIRE       SUNNY     64  55  74 SE5       29.96S
CADILLAC       SUNNY     63  56  78 SW6       29.98S
CHARLEVOIX     SUNNY     65  57  75 W7        29.98F
FRANKFORT      SUNNY     66  57  72 W6        29.98R
GAYLORD        SUNNY     60  54  80 W7        29.97S
GRAYLING       SUNNY     63  55  76 CALM      29.98S
HARBOR SPRINGS PTSUNNY   62  57  82 SW5       29.95F
HOUGHTON LAKE  SUNNY     61  54  77 W8        29.98S
MANISTEE       SUNNY     61  55  82 CALM      30.00R
OSCODA         PTSUNNY   64  55  72 SW9       29.96S
PELLSTON       MOSUNNY   66  56  70 W8        29.95S
ROGERS CITY    MOSUNNY   63  57  82 SW8       29.96F
TRAVERSE CITY  MOSUNNY   67  55  65 S3        29.95F
$$
MIZ007>008-015-311500-
EASTERN UPPER MICHIGAN

CITY           SKY/WX    TMP DP  RH WIND       PRES   REMARKS
KINROSS        CLOUDY    61  55  82 SW5       29.92S
MACKINAC ISLAN PTSUNNY   62  59  93 W6        29.93S
NEWBERRY       MOSUNNY   62  54  75 SW14      29.92S
S. S. MARIE    CLOUDY    60  54  80 W3        29.91S
MUNISING         N/A     64  55  72 NE3       29.91F
$$
MIZ004>006-011>014-085-311500-
CENTRAL UPPER MICHIGAN

CITY           SKY/WX    TMP DP  RH WIND       PRES   REMARKS
MANISTIQUE     SUNNY     62  57  84 SW5       29.94S
ESCANABA       MOSUNNY   64  55  72 W5        29.94S
MENOMINEE      SUNNY     61  57  88 CALM      29.96S
SAWYER-GWINN   SUNNY     66  55  68 W8        29.94S
$$
MIZ001>003-009>011-084-311500-
WESTERN UPPER MICHIGAN

CITY           SKY/WX    TMP DP  RH WIND       PRES   REMARKS
IRON MOUNTAIN  SUNNY     65  57  75 NW3       29.96R
HOUGHTON       PTSUNNY   62  55  77 W13       29.93R
COPPER HARBOR    N/A     63  56  78 N10       29.91S
$$

ABBREVIATIONS USED IN REMARKS
   TC - TEMPERATURE IN CELSIUS
  WCI - WIND CHILL INDEX
   HX - HEAT INDEX
  VSB - VISIBILITY




USA.gov is the U.S. government's official web portal to all federal, state and local government web resources and services.